Simultaneous Nadir Overpasses (SNOs) Predictions

Prediction of SNOs between FY3D and METOP-C Satellite Orbit:

Table of predicted SNOs for the next 14.0 days since TLE Epoch: 2/12/2022
Index Date (FY3D) Time (FY3D) Lat,Lon (FY3D) SZA (FY3D ) Date (METOP-C) Time (METOP-C) Lat,Lon (METOP-C) SZA (METOP-C ) Distance(km) Time Diff (sec)
1 02/20/2022 07:10:07 -74.45,-114.80 94.48 02/20/2022 07:11:14 -74.40,-111.89 94.66 87.02 67
2 02/20/2022 08:00:48 74.17, 53.23 85.21 02/20/2022 08:01:58 74.14, 54.77 85.09 46.95 70
3 02/20/2022 08:51:30 -74.09,-139.24 94.91 02/20/2022 08:52:42 -74.04,-138.15 95.02 33.84 72
4 02/20/2022 09:42:11 73.81, 28.76 84.78 02/20/2022 09:43:25 73.82, 28.66 84.78 3.48 74
5 02/20/2022 10:32:56 -73.82,-163.96 95.22 02/20/2022 10:34:08 -73.82,-164.02 95.24 1.89 72
6 02/20/2022 11:23:43 73.83, 3.32 84.78 02/20/2022 11:24:46 73.85, 3.38 84.78 2.34 63
7 02/20/2022 12:14:28 -73.85, 170.60 95.22 02/20/2022 12:15:29 -73.85, 170.71 95.24 3.51 61
8 02/20/2022 13:05:14 73.81, -22.00 84.73 02/20/2022 13:06:08 73.82, -22.01 84.73 1.36 54
9 02/20/2022 13:55:59 -73.83, 145.27 95.27 02/20/2022 13:56:51 -73.83, 145.32 95.28 1.48 52
10 02/20/2022 14:46:45 73.79, -47.33 84.68 02/20/2022 14:47:30 73.80, -47.40 84.69 2.56 45
11 02/20/2022 15:37:30 -73.80, 119.95 95.32 02/20/2022 15:38:13 -73.81, 119.93 95.33 0.54 43
12 02/20/2022 16:28:17 73.82, -72.77 84.68 02/20/2022 16:28:51 73.83, -72.67 84.69 3.69 34
13 02/20/2022 17:19:01 -73.78, 94.62 95.37 02/20/2022 17:19:35 -73.78, 94.54 95.37 2.56 34
14 02/20/2022 18:09:48 73.79, -98.10 84.63 02/20/2022 18:10:13 73.81, -98.06 84.64 2.24 25
15 02/20/2022 19:00:33 -73.81, 69.18 95.37 02/20/2022 19:00:56 -73.81, 69.27 95.37 2.82 23
16 02/20/2022 19:51:19 73.77,-123.43 84.58 02/20/2022 19:51:35 73.79,-123.45 84.60 2.18 16
17 02/20/2022 20:42:04 -73.79, 43.85 95.42 02/20/2022 20:42:18 -73.79, 43.88 95.42 0.98 14
18 02/20/2022 21:32:51 73.80,-148.87 84.59 02/20/2022 21:32:57 73.77,-148.84 84.55 3.42 6
19 02/20/2022 22:23:35 -73.76, 18.53 95.47 02/20/2022 22:23:40 -73.77, 18.49 95.46 1.45 5
20 02/20/2022 23:14:22 73.77,-174.19 84.54 02/20/2022 23:14:19 73.75,-174.23 84.51 3.35 3
21 02/21/2022 00:05:06 -73.74, -6.80 95.52 02/21/2022 00:05:02 -73.75, -6.90 95.51 3.37 4
22 02/21/2022 00:55:53 73.75, 160.48 84.48 02/21/2022 00:55:40 73.77, 160.50 84.51 2.59 13
23 02/21/2022 01:46:38 -73.77, -32.24 95.52 02/21/2022 01:46:23 -73.78, -32.18 95.51 2.38 15
24 02/21/2022 02:37:24 73.73, 135.15 84.43 02/21/2022 02:37:02 73.75, 135.11 84.46 3.10 22
25 02/21/2022 03:28:09 -73.74, -57.57 95.57 02/21/2022 03:27:45 -73.76, -57.57 95.55 1.29 24
26 02/21/2022 04:18:56 73.75, 109.71 84.44 02/21/2022 04:18:24 73.73, 109.71 84.42 2.65 32
27 02/21/2022 05:09:40 -73.72, -82.90 95.62 02/21/2022 05:09:07 -73.73, -82.96 95.60 2.39 33
28 02/21/2022 06:00:27 73.73, 84.38 84.39 02/21/2022 05:59:46 73.71, 84.32 84.37 3.11 41
29 02/21/2022 06:51:12 -73.75,-108.34 95.61 02/21/2022 06:50:28 -73.76,-108.23 95.60 3.79 44
30 02/21/2022 07:41:58 73.71, 59.06 84.34 02/21/2022 07:41:07 73.74, 59.05 84.37 3.21 51
31 02/21/2022 08:32:43 -73.72,-133.67 95.66 02/21/2022 08:31:50 -73.74,-133.62 95.64 2.29 53
32 02/21/2022 09:23:30 73.74, 33.61 84.34 02/21/2022 09:22:29 73.72, 33.66 84.33 2.59 61
33 02/21/2022 10:14:14 -73.70,-158.99 95.71 02/21/2022 10:13:12 -73.72,-159.01 95.69 2.04 62
34 02/21/2022 11:05:01 73.71, 8.29 84.29 02/21/2022 11:03:51 73.69, 8.27 84.29 2.07 70
35 02/21/2022 11:55:45 -73.68, 175.68 95.77 02/21/2022 11:54:34 -73.70, 175.60 95.73 3.32 71
36 02/21/2022 12:46:28 73.49, -16.57 84.02 02/21/2022 12:45:16 73.52, -17.47 84.11 28.49 72
37 02/21/2022 13:37:12 -73.46, 150.82 96.03 02/21/2022 13:36:00 -73.48, 149.75 95.95 33.84 72
38 02/21/2022 14:27:52 73.12, -41.11 83.59 02/21/2022 14:26:45 73.15, -43.64 83.75 81.73 67
39 02/21/2022 15:18:36 -73.09, 126.27 96.46 02/21/2022 15:17:29 -73.11, 123.59 96.31 86.97 67



Historial Predications of SNOs between FY3D and METOP-C
